This is the latest recevied weather packets stored in our database for station/object VE6CWS-7. If no packets are shown the sender has not sent any weather packets the latest 10 day(s).
| Time | Temp. | Humidity | Pressure | Rain* | Wind** | Luminosity | Snow |
|---|---|---|---|---|---|---|---|
| 1777959956 | 2.78° C | 59% | 1019.1 hPa | 0 mm | - | - | - |
| 1777959040 | 3.33° C | 58% | 1019 hPa | 0 mm | - | - | - |
| 1777958139 | 3.33° C | 57% | 1018.9 hPa | 0 mm | - | - | - |
| 1777957297 | 3.89° C | 56% | 1018.5 hPa | 0 mm | - | - | - |
| 1777956367 | 4.44° C | 55% | 1018.3 hPa | 0 mm | - | - | - |
| 1777955454 | 5° C | 54% | 1018.3 hPa | 0 mm | - | - | - |
| 1777954552 | 5° C | 53% | 1018.1 hPa | 0 mm | - | - | - |
| 1777953713 | 5.56° C | 51% | 1018.1 hPa | 0 mm | - | - | - |
| 1777952746 | 5.56° C | 51% | 1017.7 hPa | 0 mm | - | - | - |
| 1777951850 | 6.11° C | 51% | 1017.3 hPa | 0 mm | - | - | - |
| 1777950942 | 6.11° C | 49% | 1016.9 hPa | 0 mm | - | - | - |
| 1777950101 | 6.67° C | 48% | 1016.7 hPa | 0 mm | - | - | - |
| 1777949162 | 7.22° C | 46% | 1016.6 hPa | 0 mm | - | - | - |
| 1777948240 | 7.78° C | 45% | 1016.3 hPa | 0 mm | - | - | - |
| 1777947347 | 8.33° C | 43% | 1016.3 hPa | 0 mm | - | - | - |
| 1777946496 | 8.89° C | 40% | 1016 hPa | 0 mm | - | - | - |
| 1777945533 | 9.44° C | 38% | 1016 hPa | 0 mm | - | - | - |
| 1777944633 | 9.44° C | 37% | 1016 hPa | 0 mm | - | - | - |
| 1777943742 | 10° C | 35% | 1015.8 hPa | 0 mm | - | - | - |
| 1777942891 | 10.56° C | 35% | 1016 hPa | 0 mm | - | - | - |
| 1777941950 | 10.56° C | 33% | 1016.1 hPa | 0 mm | - | - | - |
| 1777941048 | 10.56° C | 33% | 1016.2 hPa | 0 mm | - | - | - |
| 1777940148 | 10.56° C | 31% | 1016.2 hPa | 0 mm | - | - | - |
| 1777939307 | 11.11° C | 32% | 1016.1 hPa | 0 mm | - | - | - |
| 1777938346 | 11.11° C | 31% | 1015.7 hPa | 0 mm | - | - | - |
* Rain latest hour (hover to see other rain measurements)
** Current wind speed in m/s (hover to see current wind gust speed)